Lawrence, MA

1:12 AM EDT on October 20, 2017 (GMT -0400)
Lawrence Municipal

Weather History for KLWM - January, 2014

Change the Weather History Date:

Tuesday, January 14, 2014

  Actual Average Record
Temperature  
Mean Temperature 46 °F -  
Max Temperature 48 °F 33 °F 64 °F (1932)
Min Temperature 43 °F 12 °F -20 °F (1957)
Degree Days  
Heating Degree Days 20    
Moisture  
Dew Point 42 °F    
Average Humidity 85    
Maximum Humidity 93    
Minimum Humidity 71    
Precipitation  
Precipitation 0.69 in - - ()
Sea Level Pressure  
Sea Level Pressure 29.73 in    
Wind  
Wind Speed 5 mph (WSW)    
Max Wind Speed 9 mph    
Max Gust Speed 18 mph    
Visibility 5 miles    
Events Fog , Rain    
Averages and records for this station are not official NWS values.
T = Trace of Precipitation, MM = Missing Value Source: NWS Daily Summary

Daily Weather History Graph

Daily Weather History Graph

Search for Another Location

Airport or City:

Trip Planner

Search our weather history database for the weather conditions in past years. The results will help you decide how hot, cold, wet, or windy it might be!

Date:

Astronomy

Jan. 14, 2014 Rise Set
Actual Time 7:12 AM EST 4:34 PM EST
Civil Twilight 6:41 AM EST 5:06 PM EST
Nautical Twilight 6:06 AM EST 5:41 PM EST
Astronomical Twilight 5:32 AM EST 6:15 PM EST
Moon 3:38 PM EST (1/14) 5:44 AM EST (1/14)
Length of Visible Light 10h 25m
Length of Day
9h 22m
Waxing Gibbous, 98% of the Moon is Illuminated
Jan 14
Waxing Gibbous
Jan 15
Full
Jan 24
Last Quarter
Jan 30
New
Feb 6
First Quarter

Hourly Weather History & Observations

Time (EST) Temp. Windchill Dew Point Humidity Pressure Visibility Wind Dir Wind Speed Gust Speed Precip Events Conditions
12:54 AM 48.0 °F - 39.9 °F 74% 29.88 in 10.0 mi SSW 8.1 mph - N/A   Clear
1:54 AM 48.9 °F - 39.9 °F 71% 29.88 in 10.0 mi SSW 8.1 mph - N/A   Clear
2:54 AM 48.9 °F - 41.0 °F 74% 29.86 in 10.0 mi SSW 8.1 mph - N/A   Clear
3:54 AM 48.0 °F - 42.1 °F 80% 29.85 in 10.0 mi SSW 5.8 mph - N/A   Clear
4:54 AM 48.0 °F - 42.1 °F 80% 29.83 in 10.0 mi Calm Calm - N/A   Clear
5:54 AM 48.9 °F - 42.1 °F 77% 29.83 in 10.0 mi South 6.9 mph - N/A   Mostly Cloudy
6:54 AM 48.9 °F - 42.1 °F 77% 29.83 in 10.0 mi South 5.8 mph - N/A   Overcast
7:54 AM 48.9 °F - 42.1 °F 77% 29.83 in 10.0 mi South 8.1 mph - N/A   Overcast
8:54 AM 48.9 °F - 42.1 °F 77% 29.84 in 10.0 mi South 5.8 mph - 0.00 in Rain Light Rain
9:54 AM 48.9 °F - 43.0 °F 80% 29.83 in 10.0 mi SSE 5.8 mph - 0.00 in Rain Light Rain
10:54 AM 48.9 °F - 42.1 °F 77% 29.82 in 7.0 mi South 9.2 mph 18.4 mph 0.01 in Rain Light Rain
11:54 AM 48.0 °F - 43.0 °F 83% 29.77 in 10.0 mi SSW 8.1 mph - 0.00 in Rain Light Rain
12:19 PM 48.0 °F - 43.0 °F 83% 29.77 in 4.0 mi SSW 5.8 mph - 0.03 in Rain Rain
12:47 PM 48.0 °F - 44.1 °F 86% 29.77 in 3.0 mi SSW 4.6 mph - 0.09 in Rain Rain
12:54 PM 48.0 °F - 44.1 °F 86% 29.76 in 4.0 mi SSW 4.6 mph - 0.10 in Rain Light Rain
1:36 PM 48.0 °F - 44.1 °F 86% 29.74 in 5.0 mi SSW 3.5 mph - 0.04 in Rain Light Rain
1:54 PM 48.0 °F - 44.1 °F 86% 29.74 in 5.0 mi SSW 3.5 mph - 0.06 in Rain Light Rain
2:18 PM 48.0 °F - 44.1 °F 86% 29.73 in 5.0 mi Calm Calm - 0.02 in Rain Light Rain
2:42 PM 48.0 °F - 44.1 °F 86% 29.72 in 6.0 mi SSW 3.5 mph - 0.03 in Rain Light Rain
2:54 PM 48.0 °F - 44.1 °F 86% 29.73 in 2.0 mi Calm Calm - 0.03 in Rain Light Rain
3:36 PM 46.9 °F - 43.0 °F 86% 29.71 in 1.0 mi Calm Calm - 0.05 in Rain Rain
3:54 PM 46.0 °F 44.8 °F 43.0 °F 89% 29.69 in 1.0 mi ENE 3.5 mph - 0.08 in Rain Light Rain
4:05 PM 46.0 °F - 43.0 °F 89% 29.69 in 0.8 mi Calm Calm - 0.01 in Rain Light Rain
4:16 PM 46.0 °F - 44.1 °F 93% 29.69 in 1.2 mi Calm Calm - 0.02 in Rain Light Rain
4:24 PM 46.0 °F - 44.1 °F 93% 29.69 in 0.5 mi Calm Calm - 0.03 in Fog , Rain Light Rain
4:50 PM 46.4 °F - 42.8 °F 87% 29.67 in 0.8 mi Calm Calm - 0.08 in Rain Rain
4:54 PM 46.0 °F - 43.0 °F 89% 29.68 in 0.8 mi Calm Calm - 0.08 in Rain Rain
5:03 PM 46.0 °F 44.8 °F 43.0 °F 89% 29.67 in 0.8 mi North 3.5 mph - 0.02 in Rain Rain
5:10 PM 46.0 °F - 43.0 °F 89% 29.67 in 0.8 mi Calm Calm - 0.03 in Rain Rain
5:21 PM 46.0 °F - 44.1 °F 93% 29.67 in 0.5 mi Calm Calm - 0.05 in Fog , Rain Rain
5:54 PM 46.0 °F 43.9 °F 43.0 °F 89% 29.66 in 0.5 mi North 4.6 mph - 0.11 in Fog , Rain Rain
5:59 PM 46.0 °F 43.9 °F 43.0 °F 89% 29.66 in 0.8 mi WNW 4.6 mph - 0.01 in Rain Rain
6:04 PM 46.0 °F 43.9 °F 43.0 °F 89% 29.67 in 0.5 mi WNW 4.6 mph - 0.02 in Fog , Rain Rain
6:17 PM 46.0 °F 44.8 °F 43.0 °F 89% 29.66 in 0.8 mi NNW 3.5 mph - 0.05 in Rain Rain
6:25 PM 46.0 °F 44.8 °F 43.0 °F 89% 29.65 in 2.0 mi NNW 3.5 mph - 0.07 in Rain Rain
6:32 PM 46.0 °F - 43.0 °F 89% 29.65 in 4.0 mi Calm Calm - 0.07 in Rain Light Rain
6:50 PM 46.4 °F 45.2 °F 42.8 °F 87% 29.65 in 4.0 mi WNW 3.5 mph - 0.08 in Rain Light Rain
6:54 PM 45.0 °F 43.5 °F 43.0 °F 93% 29.65 in 3.0 mi NW 3.5 mph - 0.08 in Rain Light Rain
7:54 PM 45.0 °F 40.6 °F 42.1 °F 90% 29.66 in 5.0 mi NW 8.1 mph - 0.08 in Rain Rain
8:01 PM 45.0 °F 41.2 °F 41.0 °F 86% 29.66 in 5.0 mi NW 6.9 mph - 0.01 in Rain Rain
8:54 PM 44.1 °F 42.5 °F 39.9 °F 85% 29.68 in 9.0 mi WNW 3.5 mph - 0.05 in Rain Light Rain
9:54 PM 43.0 °F 39.5 °F 39.9 °F 89% 29.67 in 10.0 mi West 5.8 mph - 0.00 in   Overcast
10:54 PM 43.0 °F 37.7 °F 39.0 °F 86% 29.72 in 10.0 mi West 9.2 mph - 0.01 in   Overcast
11:54 PM 43.0 °F 38.8 °F 37.9 °F 82% 29.76 in 10.0 mi West 6.9 mph - 0.00 in Rain Light Rain